Wind_Speed
9 8 7 7 7 7 7 7 8 8 8 8 8 8 7 6 5 4 5 6 8 9 11 13 14 16 17 18 20 21 22 23 25 26 27 27 28 29 31 32 33 34 35 36 37 38 39 40 41
11 11 10 9 9 8 8 8 9 8 7 6 6 5 5 5 5 6 8 10 11 13 14 15 17 18 19 20 21 22 23 24 26 27 28 30 31 32 33 34 35 36 37 39 40 41 42 43 44
11 11 11 10 9 7 8 8 7 6 5 4 4 5 5 6 8 10 11 13 14 15 16 18 19 20 20 21 22 23 25 26 27 29 30 31 32 33 35 36 37 38 39 41 42 43 44 46 47
10 10 9 8 6 6 6 6 5 4 4 5 6 7 9 10 11 13 14 15 16 17 18 19 20 20 21 22 23 25 27 28 29 31 32 33 34 35 37 38 39 41 42 43 45 46 48 49 51
8 7 7 5 4 4 4 4 4 4 6 7 9 10 11 13 14 16 17 17 18 18 19 19 20 21 22 24 26 27 29 30 31 32 33 35 36 37 38 40 42 44 45 47 49 51 53 55 56
6 5 4 4 4 5 4 5 6 7 9 11 13 14 14 15 16 17 18 18 18 19 19 20 22 23 24 26 28 29 31 32 33 34 35 36 38 39 41 43 45 47 50 52 54 56 58 61 63
5 5 5 5 7 7 7 8 10 11 12 14 16 17 16 16 16 17 17 18 18 19 20 21 23 24 26 28 29 31 32 33 34 36 37 39 41 42 44 47 49 52 54 57 59 62 65 68 70
7 7 7 9 10 10 10 11 12 14 14 15 17 17 16 16 16 17 17 18 19 20 22 23 24 26 28 29 30 32 33 35 36 38 40 41 43 45 48 50 53 55 58 61 64 67 71 74 77
9 9 10 11 12 12 12 12 13 13 14 14 15 15 15 15 15 16 17 18 19 21 23 24 26 27 29 30 32 34 35 37 39 41 42 44 46 48 51 53 56 58 61 65 68 72 76 79 84
11 11 10 11 12 13 12 11 11 12 12 12 13 13 14 14 15 16 18 19 20 22 23 25 26 28 30 31 33 35 37 39 41 42 44 46 49 51 53 56 58 61 65 68 72 77 80 85 90
11 10 10 9 10 11 11 10 10 10 11 11 11 11 12 13 14 16 18 19 21 22 24 26 28 30 31 33 35 36 39 41 42 44 47 49 51 54 56 59 61 64 67 71 76 80 84 90 95
11 10 9 9 8 9 9 9 9 10 10 10 11 11 12 12 14 15 17 19 21 23 25 27 29 31 32 34 36 39 41 42 44 46 48 51 53 56 58 61 63 66 70 74 78 83 89 94 99
10 10 9 8 7 8 8 8 8 9 10 11 11 12 12 12 13 15 17 19 21 23 25 27 29 32 33 36 38 40 42 44 46 47 49 52 54 57 59 62 65 68 72 76 81 87 92 97 101
10 9 8 7 7 7 8 8 7 8 9 10 11 12 12 13 14 16 18 20 22 24 26 28 30 32 34 36 38 40 42 44 46 48 50 53 55 57 60 62 65 69 74 79 84 90 94 97 97
9 9 8 7 6 6 8 8 7 7 8 9 10 11 12 13 15 16 18 20 22 24 26 28 29 31 33 35 37 39 41 44 46 48 50 53 55 57 60 63 67 71 76 81 87 91 94 93 91
9 8 7 7 6 6 7 8 7 7 7 8 9 10 11 13 15 16 18 20 22 24 26 28 30 32 34 36 38 40 42 44 46 48 51 53 55 58 61 64 68 73 78 83 88 90 90 88 85
8 8 7 7 6 6 6 7 8 7 7 8 9 10 11 13 15 17 18 20 22 25 27 29 31 33 35 37 39 42 44 46 48 50 52 54 57 59 62 66 70 75 80 85 88 88 87 84 80
8 7 8 8 8 7 6 6 7 7 7 8 9 10 11 13 15 17 19 21 23 26 29 31 32 35 37 39 41 44 46 48 50 52 54 56 58 61 64 68 72 77 82 85 86 85 83 80 77
9 9 9 9 8 8 7 7 7 7 7 8 9 10 12 13 15 17 19 22 24 27 30 33 35 37 39 41 43 45 48 51 53 55 57 59 61 63 66 70 74 78 82 84 84 82 79 77 75
12 11 10 10 9 9 9 8 8 8 8 9 10 11 12 14 15 18 20 23 25 28 31 34 37 39 41 43 45 47 50 53 55 57 60 61 63 65 68 72 76 79 82 82 81 80 77 74 73
14 13 12 12 12 11 11 11 11 11 11 11 12 13 14 15 17 19 21 24 27 29 32 35 38 41 43 45 47 50 52 55 58 60 62 64 66 68 70 74 77 80 81 80 79 77 75 72 70
15 15 14 14 14 14 14 14 13 14 14 14 15 16 17 18 19 21 23 26 28 30 33 36 39 42 45 47 50 52 54 57 60 62 64 66 68 70 72 75 77 79 79 78 76 75 73 71 68
17 17 17 17 17 17 17 17 16 17 17 18 19 20 20 21 22 24 26 28 31 33 35 38 41 44 47 49 51 54 56 59 61 64 66 68 69 71 73 76 77 78 78 76 74 73 71 70 68
19 19 20 20 20 19 19 20 19 19 20 21 22 23 24 25 26 28 29 31 34 36 38 40 42 45 48 51 53 55 58 60 63 65 67 69 71 72 74 76 77 77 76 74 72 70 69 68 67
21 21 22 23 23 22 23 23 21 22 23 23 25 26 27 29 30 31 33 35 37 39 41 42 44 47 49 52 54 57 59 61 64 66 69 70 72 73 75 76 76 76 74 72 70 68 67 66 65
23 23 25 26 26 25 26 26 24 25 26 26 28 29 30 31 33 34 36 38 40 41 43 45 46 48 50 53 56 58 60 63 65 67 70 71 72 73 75 75 75 74 73 70 68 67 65 64 63
24 25 27 29 30 30 30 29 26 27 29 30 31 32 33 34 35 37 38 40 42 44 45 47 48 50 51 54 56 59 61 64 66 68 71 72 73 74 75 75 74 73 71 69 67 65 64 62 61
27 28 29 31 33 34 33 31 29 29 31 33 34 35 37 37 39 40 41 42 44 46 47 49 50 51 53 55 57 59 61 64 67 69 71 73 74 74 75 75 74 72 70 68 65 63 63 61 59
28 29 31 33 36 38 39 34 31 33 35 36 38 39 40 41 42 43 43 45 46 48 49 51 52 53 54 55 57 60 62 65 68 69 72 73 74 74 74 74 73 71 69 67 64 62 62 59 57
30 31 33 36 38 41 44 39 32 35 37 40 42 43 44 44 44 45 46 47 48 49 51 52 53 54 55 56 58 60 62 65 68 70 72 73 73 73 74 73 72 70 68 66 63 61 60 58 56
Wind_Direction
93 94 92 94 98 96 96 93 89 86 84 85 86 86 81 71 58 35 3 344 335 326 321 317 313 310 308 307 306 305 305 304 304 303 302 301 300 299 298 297 296 295 294 293 292 291 289 288 286
86 88 89 88 91 94 92 87 83 82 79 72 65 57 46 33 9 346 333 326 322 317 314 312 309 307 306 306 305 305 305 304 303 302 301 300 299 298 297 296 295 294 293 292 291 290 288 287 286
83 84 86 88 90 88 83 78 75 69 59 41 23 8 356 348 337 326 320 317 314 311 310 308 307 306 306 305 305 305 304 303 303 302 301 300 299 298 297 296 295 294 293 291 290 288 287 286 285
78 76 78 81 83 77 70 62 52 38 15 352 338 332 328 327 323 317 313 311 309 308 308 307 306 306 307 307 306 306 305 304 303 302 301 300 299 298 298 297 296 295 294 293 291 290 288 287 285
68 64 61 55 46 45 45 28 5 343 330 322 318 315 316 317 315 311 310 309 308 308 308 308 308 308 308 307 307 306 305 305 304 303 302 301 300 299 299 298 297 297 296 295 294 292 291 289 287
49 41 33 11 348 347 352 338 324 319 316 314 311 310 312 312 310 308 308 308 309 310 310 310 310 309 309 308 308 308 307 306 305 304 303 303 302 301 301 300 300 300 299 298 297 295 294 292 290
9 357 344 327 317 319 323 317 312 312 311 308 306 307 310 309 308 307 307 308 310 310 310 310 309 309 309 309 309 309 309 308 307 306 305 304 304 303 303 302 302 302 302 300 299 298 296 295 292
336 331 320 312 310 313 313 310 308 308 308 304 303 305 308 308 307 308 309 310 311 311 311 311 310 310 310 311 311 310 310 309 309 308 307 306 305 305 305 305 304 304 303 302 300 299 298 296 294
321 317 313 310 310 311 309 308 306 304 303 302 302 304 307 308 309 310 311 311 311 311 311 311 311 312 312 313 312 312 312 311 311 310 309 308 307 307 306 306 305 305 303 302 302 301 299 298 296
312 311 310 306 305 306 307 307 305 302 301 301 301 304 306 309 311 312 312 312 313 313 313 313 314 314 315 314 314 314 314 313 313 312 311 310 309 308 307 307 306 305 304 303 303 302 300 299 298
310 310 309 304 302 303 305 307 305 303 303 303 303 305 308 311 313 313 314 314 315 316 317 317 317 317 317 318 318 317 316 315 314 313 312 311 310 309 308 307 306 306 305 305 304 303 302 301 299
311 312 310 306 305 305 308 310 309 307 307 308 310 312 315 317 317 317 317 318 319 320 321 321 321 321 321 322 321 320 319 317 316 315 314 312 311 310 309 308 307 307 306 306 305 304 304 302 300
311 312 311 311 311 311 311 313 312 312 313 315 319 323 324 323 322 321 321 322 323 324 325 325 325 325 326 325 324 322 321 319 318 316 315 313 312 311 310 309 308 308 308 307 307 307 306 304 302
310 310 311 311 312 311 310 312 315 314 316 320 324 327 328 327 327 326 327 328 329 329 330 330 330 329 329 328 326 325 323 322 320 318 316 315 313 312 311 310 310 310 309 309 309 309 307 306 304
307 307 308 308 310 309 310 315 320 319 322 326 329 330 330 330 331 332 333 334 334 334 334 334 333 333 332 331 330 328 327 325 323 320 318 317 316 314 313 312 312 312 312 312 312 311 310 308 306
301 301 301 303 306 306 311 316 329 328 328 332 333 332 332 334 336 337 338 338 337 337 336 336 335 335 335 334 333 332 331 329 327 324 322 320 318 317 315 315 315 314 315 315 315 314 312 311 309
294 292 295 301 304 302 304 311 323 332 332 333 334 335 336 339 340 340 341 341 340 339 338 337 337 336 336 335 335 334 333 332 330 328 326 323 322 320 318 318 317 318 318 318 318 317 315 313 311
287 281 278 283 287 291 296 301 311 322 327 331 333 334 336 339 340 342 342 342 342 341 340 339 338 336 336 336 336 335 335 334 332 331 329 327 325 323 322 321 321 321 321 321 321 319 318 316 314
277 267 261 265 273 281 287 291 299 307 316 322 325 328 333 336 339 342 343 343 343 343 342 340 339 337 337 336 336 336 336 335 334 333 331 329 327 326 325 324 324 324 324 324 323 322 321 319 317
267 263 262 265 271 276 280 283 291 295 304 312 317 322 328 332 336 339 340 342 343 343 342 341 340 339 338 338 337 337 336 336 335 334 333 331 330 329 328 327 327 327 327 326 325 324 323 322 320
264 263 265 267 270 273 276 280 288 292 298 305 310 315 321 327 330 333 336 338 339 341 341 341 341 340 339 339 338 337 337 336 336 335 334 333 332 331 330 330 330 330 330 329 328 326 325 325 323
265 264 265 267 269 273 278 281 288 293 296 301 306 312 318 324 327 330 331 333 335 337 339 340 340 340 340 339 339 338 337 337 336 336 335 334 333 333 332 332 332 332 332 331 329 328 327 327 327
266 265 266 267 270 274 280 284 289 293 296 301 306 311 317 322 325 326 328 329 331 333 335 337 339 339 339 339 338 338 337 337 337 337 336 335 335 334 334 334 334 334 333 332 331 330 329 329 329
266 265 266 267 271 275 279 283 289 293 296 301 307 311 315 319 323 324 326 327 329 331 333 334 336 337 338 337 337 337 337 337 337 337 337 336 336 336 336 336 336 335 335 334 333 332 331 331 331
266 266 267 268 272 276 279 283 290 292 296 301 306 310 313 316 319 322 324 326 327 329 330 331 333 334 335 336 336 336 337 337 337 337 338 337 337 337 337 337 337 337 336 336 335 334 333 333 333
266 266 268 271 274 276 278 284 291 293 297 300 304 307 310 313 316 319 321 323 324 325 327 329 330 331 333 334 335 335 336 337 337 337 338 338 338 338 338 338 338 338 338 337 336 336 335 335 335
267 265 268 271 274 276 279 285 289 293 296 298 301 304 306 310 313 315 318 319 321 322 324 326 327 329 330 332 333 334 335 336 337 338 338 338 338 339 339 340 340 340 339 339 338 338 337 337 336
268 268 269 271 275 278 281 285 292 293 294 296 299 301 303 306 310 312 315 316 318 319 321 323 324 326 327 329 331 332 334 335 336 337 338 339 339 340 340 341 341 341 341 340 340 339 339 338 338
271 270 271 273 276 280 283 287 294 295 296 296 297 298 301 304 307 309 311 313 314 316 318 320 322 323 325 326 328 330 332 334 335 336 338 339 339 340 341 342 342 342 342 341 341 341 341 340 340
272 272 273 275 277 280 284 290 296 295 296 295 295 296 299 302 304 306 308 310 311 313 315 317 319 321 323 324 326 328 330 332 334 336 337 338 339 340 341 342 342 343 343 343 342 342 342 342 341
Height
5887 5888 5888 5889 5889 5889 5888 5888 5887 5887 5886 5886 5886 5886 5886 5887 5887 5888 5886 5883 5882 5881 5880 5879 5878 5876 5875 5873 5872 5870 5868 5866 5864 5863 5861 5859 5858 5856 5855 5853 5851 5850 5849 5848 5847 5846 5845 5844 5844
5889 5889 5890 5891 5890 5889 5890 5889 5888 5887 5887 5887 5886 5886 5886 5885 5885 5885 5883 5882 5881 5880 5878 5877 5875 5874 5872 5870 5868 5866 5864 5862 5860 5858 5856 5854 5852 5850 5849 5847 5845 5843 5842 5840 5839 5838 5837 5836 5835
5891 5891 5892 5892 5891 5891 5890 5889 5888 5888 5887 5887 5886 5885 5885 5885 5884 5883 5882 5880 5879 5877 5876 5874 5872 5870 5869 5867 5864 5862 5860 5858 5855 5853 5851 5848 5846 5844 5842 5840 5838 5836 5834 5832 5831 5829 5828 5827 5826
5894 5894 5894 5893 5892 5891 5891 5890 5888 5888 5887 5886 5885 5885 5884 5883 5882 5881 5879 5878 5876 5875 5873 5871 5869 5867 5865 5863 5860 5858 5856 5853 5850 5848 5845 5842 5840 5837 5835 5832 5830 5827 5825 5823 5821 5819 5817 5816 5815
5895 5895 5894 5893 5893 5892 5891 5889 5888 5887 5886 5885 5884 5883 5882 5882 5880 5878 5876 5875 5873 5872 5870 5867 5865 5863 5861 5858 5856 5853 5850 5847 5845 5842 5839 5836 5833 5830 5827 5824 5821 5818 5815 5812 5809 5807 5805 5803 5801
5896 5895 5894 5893 5893 5891 5890 5889 5888 5887 5885 5884 5882 5881 5880 5879 5877 5876 5874 5872 5870 5868 5866 5863 5861 5859 5856 5853 5851 5848 5845 5842 5838 5835 5832 5829 5825 5822 5818 5815 5811 5807 5804 5800 5796 5793 5790 5787 5785
5897 5895 5894 5893 5891 5890 5889 5887 5886 5885 5883 5881 5879 5878 5877 5876 5874 5872 5870 5869 5866 5864 5862 5860 5857 5854 5852 5849 5845 5842 5839 5835 5832 5828 5824 5821 5817 5813 5809 5804 5800 5795 5791 5786 5782 5778 5774 5770 5766
5895 5895 5893 5891 5890 5889 5888 5886 5884 5882 5881 5879 5877 5875 5874 5873 5871 5869 5867 5865 5863 5861 5858 5855 5853 5850 5847 5843 5840 5836 5833 5829 5825 5821 5816 5812 5808 5803 5798 5793 5788 5783 5778 5773 5768 5762 5757 5751 5745
5894 5894 5891 5889 5887 5886 5885 5883 5882 5880 5879 5877 5875 5873 5872 5870 5868 5866 5864 5862 5860 5857 5854 5851 5848 5845 5842 5838 5834 5830 5826 5822 5817 5812 5808 5803 5798 5793 5787 5782 5776 5771 5765 5759 5753 5746 5739 5732 5724
5893 5891 5890 5887 5885 5883 5882 5881 5879 5878 5876 5874 5873 5871 5869 5867 5865 5863 5861 5858 5856 5853 5850 5847 5843 5840 5836 5832 5828 5824 5819 5814 5809 5804 5799 5794 5788 5782 5777 5771 5765 5758 5752 5744 5737 5729 5721 5712 5702
5890 5889 5887 5885 5883 5881 5879 5878 5876 5875 5873 5872 5871 5869 5867 5865 5863 5860 5857 5855 5852 5849 5845 5842 5838 5834 5830 5826 5821 5817 5812 5807 5801 5796 5790 5784 5778 5772 5766 5759 5752 5745 5738 5730 5721 5712 5702 5691 5679
5888 5886 5884 5882 5880 5878 5877 5875 5874 5872 5871 5869 5868 5866 5864 5862 5860 5857 5854 5851 5848 5844 5841 5837 5833 5829 5824 5819 5814 5809 5804 5799 5793 5787 5781 5775 5768 5761 5754 5747 5740 5732 5724 5715 5705 5694 5682 5667 5652
5886 5884 5882 5880 5878 5876 5874 5872 5871 5869 5868 5866 5864 5862 5861 5859 5857 5854 5851 5847 5844 5840 5836 5832 5828 5823 5818 5813 5808 5802 5797 5791 5785 5779 5772 5765 5758 5751 5743 5736 5728 5719 5710 5699 5687 5674 5659 5642 5624
5884 5881 5879 5877 5876 5874 5872 5870 5869 5868 5866 5863 5861 5860 5858 5856 5853 5850 5847 5843 5839 5835 5831 5827 5822 5817 5812 5807 5802 5796 5790 5784 5777 5770 5763 5756 5748 5741 5732 5724 5715 5705 5694 5681 5667 5651 5634 5615 5596
5881 5880 5878 5876 5874 5872 5870 5868 5867 5866 5864 5862 5860 5858 5855 5853 5850 5846 5843 5839 5835 5831 5827 5822 5818 5813 5807 5802 5796 5790 5783 5776 5769 5762 5754 5746 5738 5730 5721 5711 5701 5689 5676 5662 5646 5627 5608 5588 5569
5880 5878 5876 5874 5872 5870 5870 5867 5866 5863 5861 5859 5857 5855 5853 5850 5846 5843 5839 5835 5832 5827 5823 5818 5813 5807 5802 5796 5790 5783 5776 5769 5761 5753 5745 5736 5727 5718 5708 5697 5686 5672 5658 5641 5623 5603 5583 5563 5545
5878 5876 5874 5872 5870 5868 5867 5865 5863 5861 5859 5857 5855 5852 5850 5846 5843 5839 5836 5832 5828 5823 5818 5813 5808 5802 5796 5790 5783 5776 5768 5760 5752 5744 5734 5725 5715 5705 5694 5683 5670 5655 5639 5620 5600 5580 5559 5541 5523
5876 5874 5872 5870 5869 5867 5865 5863 5861 5859 5857 5855 5852 5850 5847 5843 5840 5836 5832 5828 5824 5819 5813 5808 5802 5796 5790 5783 5776 5768 5760 5752 5743 5733 5724 5714 5703 5692 5680 5667 5653 5637 5619 5599 5578 5558 5538 5518 5501
5873 5872 5870 5869 5866 5865 5863 5861 5859 5857 5854 5852 5850 5847 5844 5840 5836 5832 5828 5824 5819 5814 5808 5802 5796 5790 5783 5776 5768 5760 5751 5742 5733 5723 5712 5702 5690 5678 5665 5651 5636 5619 5600 5579 5559 5538 5519 5500 5481
5871 5869 5868 5866 5864 5862 5860 5858 5856 5854 5852 5849 5847 5844 5840 5836 5832 5828 5824 5819 5814 5809 5803 5797 5790 5783 5776 5768 5760 5751 5742 5732 5722 5712 5701 5689 5677 5664 5650 5636 5619 5601 5581 5560 5540 5519 5501 5483 5463
5867 5866 5864 5863 5861 5859 5858 5856 5854 5851 5849 5846 5843 5840 5837 5833 5828 5824 5819 5814 5809 5803 5797 5791 5784 5776 5768 5760 5751 5742 5733 5722 5712 5701 5689 5676 5663 5650 5635 5619 5602 5583 5564 5543 5523 5503 5484 5468 5451
5863 5862 5861 5859 5857 5856 5854 5852 5850 5847 5845 5842 5839 5836 5832 5828 5824 5819 5814 5809 5803 5798 5791 5784 5777 5769 5760 5752 5743 5733 5723 5713 5702 5690 5677 5664 5650 5636 5620 5604 5586 5567 5547 5527 5507 5488 5469 5452 5437
5859 5858 5857 5855 5853 5852 5849 5847 5847 5843 5840 5838 5835 5831 5827 5823 5819 5814 5809 5803 5797 5791 5784 5777 5769 5761 5753 5744 5734 5724 5714 5703 5691 5679 5666 5652 5637 5622 5606 5589 5571 5552 5533 5513 5493 5475 5457 5439 5423
5855 5853 5852 5850 5848 5847 5845 5843 5842 5839 5836 5833 5829 5825 5821 5817 5813 5808 5802 5796 5790 5784 5777 5769 5762 5753 5745 5735 5726 5716 5705 5693 5681 5668 5655 5640 5625 5609 5593 5576 5558 5539 5520 5500 5482 5464 5446 5429 5412
5850 5849 5847 5844 5843 5842 5839 5837 5838 5834 5831 5827 5824 5820 5815 5811 5806 5800 5795 5789 5782 5776 5769 5762 5754 5745 5736 5727 5717 5707 5696 5684 5672 5658 5644 5629 5614 5598 5581 5564 5546 5527 5508 5489 5471 5454 5437 5420 5403
5845 5844 5842 5840 5837 5836 5833 5831 5833 5829 5825 5821 5817 5813 5809 5804 5799 5793 5787 5781 5775 5768 5761 5753 5745 5737 5728 5719 5709 5698 5687 5675 5662 5649 5635 5620 5604 5587 5570 5553 5535 5516 5498 5480 5462 5445 5428 5411 5395
5840 5838 5836 5833 5830 5828 5827 5826 5826 5823 5818 5814 5811 5807 5802 5797 5791 5786 5780 5774 5767 5760 5753 5745 5737 5729 5720 5710 5700 5689 5678 5666 5653 5639 5625 5610 5594 5578 5561 5543 5525 5507 5489 5471 5454 5437 5420 5404 5389
5834 5832 5830 5826 5823 5820 5819 5819 5820 5816 5812 5808 5804 5799 5794 5789 5784 5778 5772 5765 5758 5751 5744 5736 5728 5720 5711 5701 5691 5680 5669 5657 5644 5630 5616 5600 5584 5568 5551 5534 5516 5499 5481 5463 5446 5430 5414 5398 5383
5828 5826 5823 5819 5816 5813 5809 5814 5813 5809 5804 5799 5795 5789 5784 5780 5775 5769 5763 5757 5750 5742 5735 5727 5719 5710 5701 5692 5682 5671 5660 5648 5635 5621 5607 5591 5575 5559 5542 5526 5508 5491 5473 5456 5440 5424 5408 5393 5378
5821 5819 5816 5813 5810 5805 5800 5805 5807 5801 5795 5789 5784 5780 5775 5771 5766 5760 5754 5748 5740 5733 5725 5717 5709 5701 5692 5683 5673 5662 5651 5639 5626 5612 5598 5583 5567 5551 5534 5518 5501 5484 5467 5450 5434 5418 5403 5388 5374